Location: Zagreb
(45.8000°N, 16.0000°E)
Time: 01:47:20
(UTC+02:00)

Transit 2A Rocket - Pass Details

Date: 29 January 2022
Orbit: 592 x 909 km, 66.7° (Epoch: 26 May)

Event Time Altitude Azimuth Distance (km) Brightness Sun altitude
Rises 23:24:58 0° 327° (NNW) 3,506 - -60.5°
Reaches altitude 10° 23:29:34 10° 358° (N) 2,509 - -60.8°
Maximum altitude 23:31:32 12° 18° (NNE) 2,363 - -60.9°
Drops below altitude 10° 23:33:27 10° 38° (NE) 2,446 - -61.0°
Sets 23:37:46 0° 71° (ENE) 3,292 - -61.2°
